Location: Zagreb
(45.8000°N, 16.0000°E)
Time: 13:44:52
(UTC+01:00)

ISS - Visible Passes

Search period start: 23 November 2017 00:00
Search period end: 03 December 2017 00:00
Orbit: 402 x 407 km, 51.6° (Epoch: 23 November)

Date Brightness Start Highest point End Pass type
(mag) Time Alt. Az. Time Alt. Az. Time Alt. Az.
26 Nov -1.3 18:24:23 10° SSW 18:25:09 14° S 18:25:09 14° S visible
27 Nov -1.6 17:33:18 10° SSE 17:34:56 13° SE 17:35:16 13° SE visible
27 Nov -0.5 19:07:40 10° WSW 19:07:56 12° WSW 19:07:56 12° WSW visible
28 Nov -2.9 18:15:29 10° SW 18:17:57 39° S 18:17:57 39° S visible
29 Nov -2.5 17:23:35 10° SSW 17:26:25 27° SE 17:27:52 19° E visible
29 Nov -0.9 18:59:31 10° WSW 19:00:32 18° W 19:00:32 18° W visible
30 Nov -3.9 18:07:04 10° WSW 18:10:20 84° NNW 18:10:23 83° N visible
01 Dec -3.6 17:14:46 10° SW 17:17:59 58° SSE 17:20:10 19° ENE visible
01 Dec -1.2 18:51:31 10° W 18:52:49 20° WNW 18:52:49 20° WNW visible
02 Dec -3.3 17:58:54 10° W 18:02:05 48° NNW 18:02:33 44° N visible
